Location: Isles
(48.9125°N, 2.8272°E)
Time: 12:11:39
(UTC+00:00)

Feng Yun 1-1 Rocket - Pass Details

Date: 03 February 2023
Orbit: 830 x 933 km, 99.1° (Epoch: 29 March)

Event Time Altitude Azimuth Distance (km) Brightness Sun altitude
Rises 18:29:48 0° 149° (SSE) 3,453 7.1 -16.7°
Reaches altitude 10° 18:32:14 10° 145° (SE) 2,504 6.4 -17.1°
Maximum altitude 18:37:38 57° 69° (ENE) 1,003 4.2 -18.0°
Drops below altitude 10° 18:42:58 10° 352° (N) 2,467 6.7 -18.9°
Sets 18:45:21 0° 348° (NNW) 3,398 7.5 -19.3°
